sampling_time,wmo_synop_id,msc_id,stn_nam,stn_elev,lat,long,stn_typ,date_tm,rpt_typ,result_time,crnt_buoy_lat,crnt_buoy_lat_qa_summary,crnt_buoy_long,crnt_buoy_long_qa_summary,avg_air_temp_pst10mts,avg_air_temp_pst10mts_qa_summary,avg_sea_sfc_temp_pst10mts,avg_sea_sfc_temp_pst10mts_qa_summary,avg_batry_volt_pst10mts,avg_batry_volt_pst10mts_qa_summary,avg_solr_panl_crnt_pst10mts,avg_solr_panl_crnt_pst10mts_qa_summary,avg_wtr_lvl_snsr_volt_pst10mts,avg_wtr_lvl_snsr_volt_pst10mts_qa_summary,avg_wave_hgt_pst20mts,avg_wave_hgt_pst20mts_qa_summary,pk_wave_hgt_pst20mts,pk_wave_hgt_pst20mts_qa_summary,sig_wave_pd_pst20mts,sig_wave_pd_pst20mts_qa_summary,sig_wave_hgt_pst20mts,sig_wave_hgt_pst20mts_qa_summary,avg_max_wave_hgt_pst20mts,avg_max_wave_hgt_pst20mts_qa_summary,avg_max_wave_pd_pst20mts,avg_max_wave_pd_pst20mts_qa_summary,avg_wave_pd_pst20mts,avg_wave_pd_pst20mts_qa_summary,pk_wave_pd_pst20mts,pk_wave_pd_pst20mts_qa_summary,avg_stn_pres_pst10mts,avg_stn_pres_pst10mts_qa_summary,avg_wnd_spd_pst10mts,avg_wnd_spd_pst10mts_qa_summary,avg_wnd_dir_pst10mts,avg_wnd_dir_pst10mts_qa_summary,max_avg_wnd_spd_pst10mts,max_avg_wnd_spd_pst10mts_qa_summary,wnd_snsr_vert_disp,wnd_snsr_vert_disp_qa_summary,pres_tend_amt_pst3hrs,pres_tend_amt_pst3hrs_data_flag,pres_tend_char_pst3hrs,pres_tend_char_pst3hrs_data_flag,avg_mslp_pst10mts,avg_mslp_pst10mts_data_flag,avg_stn_pres_pst10mts_1,avg_stn_pres_pst10mts_2,avg_wnd_spd_pst10mts_1,avg_wnd_spd_pst10mts_2,avg_wnd_dir_pst10mts_1,avg_wnd_dir_pst10mts_2,max_avg_wnd_spd_pst10mts_1,max_avg_wnd_spd_pst10mts_2,wnd_snsr_vert_disp_1,wnd_snsr_vert_disp_2
2020-10-17T00:00:00Z,44489,9302001,West Chedabucto Bay,0.0,45.48687,-61.14100000000001,18,2020-10-17T00:00:00.000Z,108,2020-10-17T00:04:34.797Z,45.48742,100,-61.14127,100,12.5,100,12.8,100,12.6,100,0.0,100,3.6,100,0.3,100,0.9,100,6.6,100,0.6,100,0.7,100,6.4,100,5.0,100,7.7,100,1026.6,100,18.0,100,103,100,21.6,100,5.0,100,0.3,1,1,1,1026.6,1,1026.6,1026.6,18.0,15.8,103,108,21.6,19.8,5.0,4.0
2020-10-17T00:10:00Z,44489,9302001,West Chedabucto Bay,0.0,45.48687,-61.14100000000001,18,2020-10-17T00:10:00.000Z,110,2020-10-17T00:12:31.935Z,,-1,,-1,13.1,100,13.4,100,12.6,100,0.0,100,3.6,100,,-1,,-1,,-1,,-1,,-1,,-1,,-1,,-1,1026.6,100,17.3,100,101,100,20.5,100,5.0,100,0.3,1,1,1,1026.6,1,1026.6,1026.6,17.3,15.5,101,105,20.5,19.4,5.0,4.0
2020-10-17T00:20:00Z,44489,9302001,West Chedabucto Bay,0.0,45.48687,-61.14100000000001,18,2020-10-17T00:20:00.000Z,110,2020-10-17T00:23:29.171Z,45.48742,100,-61.14127,100,12.4,100,12.8,100,12.6,100,0.0,100,3.6,100,,-1,,-1,,-1,,-1,,-1,,-1,,-1,,-1,1026.6,100,15.8,100,96,100,20.2,100,5.0,100,0.4,1,1,1,1026.6,1,1026.6,1026.6,15.8,14.0,96,101,20.2,18.0,5.0,4.0
2020-10-17T00:30:00Z,44489,9302001,West Chedabucto Bay,0.0,45.48687,-61.14100000000001,18,2020-10-17T00:30:00.000Z,110,2020-10-17T00:32:37.880Z,45.48742,100,-61.14127,100,12.4,100,12.8,100,12.6,100,0.0,100,3.6,100,,-1,,-1,,-1,,-1,,-1,,-1,,-1,,-1,1026.7,100,16.6,100,95,100,20.2,100,5.0,100,0.4,1,1,1,1026.7,1,1026.7,1026.7,16.6,14.8,95,100,20.2,19.4,5.0,4.0
2020-10-17T00:40:00Z,44489,9302001,West Chedabucto Bay,0.0,45.48687,-61.14100000000001,18,2020-10-17T00:40:00.000Z,110,2020-10-17T00:42:38.721Z,45.48742,100,-61.14125,100,12.3,100,12.8,100,12.6,100,0.0,100,3.6,100,,-1,,-1,,-1,,-1,,-1,,-1,,-1,,-1,1026.6,100,16.6,100,92,100,20.2,100,5.0,100,0.3,1,1,1,1026.6,1,1026.6,1026.6,16.6,14.8,92,97,20.2,20.2,5.0,4.0
2020-10-17T00:50:00Z,44489,9302001,West Chedabucto Bay,0.0,45.48687,-61.14100000000001,18,2020-10-17T00:50:00.000Z,110,2020-10-17T00:52:46.042Z,45.48742,100,-61.14123000000001,100,12.3,100,12.8,100,12.6,100,0.0,100,3.6,100,,-1,,-1,,-1,,-1,,-1,,-1,,-1,,-1,1026.5,100,16.6,100,93,100,19.8,100,5.0,100,0.1,1,0,1,1026.5,1,1026.5,1026.5,16.6,15.1,93,98,19.8,18.7,5.0,4.0
2020-10-17T01:00:00Z,44489,9302001,West Chedabucto Bay,0.0,45.48687,-61.14100000000001,18,2020-10-17T01:00:00.000Z,108,2020-10-17T01:03:35.453Z,45.48738,100,-61.14122,100,12.2,100,12.8,100,12.6,100,0.0,100,3.6,100,0.3,100,0.8,100,6.3,100,0.5,100,0.7,100,6.7,100,4.6,100,7.4,100,1026.6,100,14.8,100,88,100,18.0,100,5.0,100,0.1,1,1,1,1026.6,1,1026.6,1026.6,14.8,13.3,88,93,18.0,16.2,5.0,4.0
2020-10-17T01:10:00Z,44489,9302001,West Chedabucto Bay,0.0,45.48687,-61.14100000000001,18,2020-10-17T01:10:00.000Z,110,2020-10-17T01:15:49.716Z,45.48738,100,-61.14123000000001,100,12.2,100,12.8,100,12.6,100,0.0,100,3.6,100,,-1,,-1,,-1,,-1,,-1,,-1,,-1,,-1,1026.6,100,13.3,100,82,100,15.5,100,5.0,100,0.1,1,1,1,1026.6,1,1026.6,1026.6,13.3,13.0,82,89,15.5,15.1,5.0,4.0
2020-10-17T01:20:00Z,44489,9302001,West Chedabucto Bay,0.0,45.48687,-61.14100000000001,18,2020-10-17T01:20:00.000Z,110,2020-10-17T01:22:51.442Z,45.48738,100,-61.14123000000001,100,12.2,100,12.8,100,12.6,100,0.0,100,3.6,100,,-1,,-1,,-1,,-1,,-1,,-1,,-1,,-1,1026.6,100,13.0,100,76,100,14.8,100,5.0,100,0.1,1,1,1,1026.6,1,1026.6,1026.6,13.0,13.0,76,83,14.8,15.1,5.0,4.0
2020-10-17T01:30:00Z,44489,9302001,West Chedabucto Bay,0.0,45.48687,-61.14100000000001,18,2020-10-17T01:30:00.000Z,110,2020-10-17T01:33:53.369Z,45.48738,100,-61.14122,100,12.3,100,12.8,100,12.6,100,0.0,100,3.6,100,,-1,,-1,,-1,,-1,,-1,,-1,,-1,,-1,1026.6,100,12.2,100,71,100,15.1,100,5.0,100,0.0,1,0,1,1026.6,1,1026.6,1026.6,12.2,12.2,71,78,15.1,15.1,5.0,4.0
2020-10-17T01:40:00Z,44489,9302001,West Chedabucto Bay,0.0,45.48687,-61.14100000000001,18,2020-10-17T01:40:00.000Z,110,2020-10-17T01:42:58.498Z,45.4874,100,-61.14125,100,12.4,100,12.8,100,12.6,100,0.0,100,3.6,100,,-1,,-1,,-1,,-1,,-1,,-1,,-1,,-1,1026.6,100,14.0,100,75,100,16.9,100,5.0,100,0.1,1,1,1,1026.6,1,1026.6,1026.6,14.0,14.0,75,81,16.9,16.9,5.0,4.0
2020-10-17T01:50:00Z,44489,9302001,West Chedabucto Bay,0.0,45.48687,-61.14100000000001,18,2020-10-17T01:50:00.000Z,110,2020-10-17T01:52:57.065Z,45.48738,100,-61.14123000000001,100,12.5,100,12.8,100,12.6,100,0.0,100,3.6,100,,-1,,-1,,-1,,-1,,-1,,-1,,-1,,-1,1026.5,100,14.0,100,75,100,18.4,100,5.0,100,0.1,1,1,1,1026.5,1,1026.5,1026.5,14.0,14.0,75,82,18.4,18.7,5.0,4.0
2020-10-17T02:00:00Z,44489,9302001,West Chedabucto Bay,0.0,45.48687,-61.14100000000001,18,2020-10-17T02:00:00.000Z,108,2020-10-17T02:03:07.436Z,45.4874,100,-61.14123000000001,100,12.5,100,12.8,100,12.6,100,0.0,100,3.6,100,0.3,100,0.9,100,6.3,100,0.6,100,0.7,100,6.6,100,4.6,100,6.9,100,1026.5,100,15.1,100,76,100,19.8,100,5.0,100,-0.1,1,8,1,1026.5,1,1026.5,1026.5,15.1,15.1,76,83,19.8,19.4,5.0,4.0
2020-10-17T02:10:00Z,44489,9302001,West Chedabucto Bay,0.0,45.48687,-61.14100000000001,18,2020-10-17T02:10:00.000Z,110,2020-10-17T02:16:16.587Z,45.4874,100,-61.14123000000001,100,12.5,100,12.8,100,12.6,100,0.0,100,3.6,100,,-1,,-1,,-1,,-1,,-1,,-1,,-1,,-1,1026.4,100,15.5,100,74,100,19.4,100,5.0,100,-0.2,1,8,1,1026.4,1,1026.4,1026.5,15.5,15.5,74,81,19.4,19.4,5.0,4.0
2020-10-17T02:20:00Z,44489,9302001,West Chedabucto Bay,0.0,45.48687,-61.14100000000001,18,2020-10-17T02:20:00.000Z,110,2020-10-17T02:23:11.539Z,45.4874,100,-61.14123000000001,100,12.5,100,12.8,100,12.6,100,0.0,100,3.6,100,,-1,,-1,,-1,,-1,,-1,,-1,,-1,,-1,1026.4,100,15.8,100,73,100,19.1,100,5.0,100,-0.2,1,8,1,1026.4,1,1026.4,1026.4,15.8,16.2,73,80,19.1,19.1,5.0,4.0
2020-10-17T02:30:00Z,44489,9302001,West Chedabucto Bay,0.0,45.48687,-61.14100000000001,18,2020-10-17T02:30:00.000Z,110,2020-10-17T02:33:09.449Z,45.4874,100,-61.14125,100,12.5,100,12.8,100,12.6,100,0.0,100,3.6,100,,-1,,-1,,-1,,-1,,-1,,-1,,-1,,-1,1026.3,100,16.9,100,74,100,21.6,100,5.0,100,-0.2,1,8,1,1026.3,1,1026.3,1026.3,16.9,17.3,74,81,21.6,22.0,5.0,4.0
2020-10-17T02:40:00Z,44489,9302001,West Chedabucto Bay,0.0,45.48687,-61.14100000000001,18,2020-10-17T02:40:00.000Z,110,2020-10-17T02:43:13.948Z,45.4874,100,-61.14125,100,12.5,100,12.8,100,12.6,100,0.0,100,3.6,100,,-1,,-1,,-1,,-1,,-1,,-1,,-1,,-1,1026.3,100,16.6,100,76,100,20.5,100,5.0,100,-0.3,1,8,1,1026.3,1,1026.3,1026.4,16.6,16.6,76,83,20.5,20.9,5.0,4.0
2020-10-17T02:50:00Z,44489,9302001,West Chedabucto Bay,0.0,45.48687,-61.14100000000001,18,2020-10-17T02:50:00.000Z,110,2020-10-17T02:53:27.124Z,45.48738,100,-61.14123000000001,100,12.5,100,12.8,100,12.6,100,0.0,100,3.6,100,,-1,,-1,,-1,,-1,,-1,,-1,,-1,,-1,1026.4,100,15.5,100,83,100,18.7,100,5.0,100,-0.2,1,7,1,1026.4,1,1026.4,1026.4,15.5,15.1,83,89,18.7,18.7,5.0,4.0
2020-10-17T03:00:00Z,44489,9302001,West Chedabucto Bay,0.0,45.48687,-61.14100000000001,18,2020-10-17T03:00:00.000Z,108,2020-10-17T03:03:23.931Z,45.48742,100,-61.14125,100,12.3,100,12.8,100,12.5,100,0.0,100,3.6,100,0.3,100,0.9,100,5.8,100,0.5,100,0.6,100,6.4,100,4.2,100,7.1,100,1026.4,100,18.7,100,91,100,24.5,100,5.0,100,-0.2,1,8,1,1026.4,1,1026.4,1026.4,18.7,18.0,91,95,24.5,24.5,5.0,4.0
2020-10-17T03:10:00Z,44489,9302001,West Chedabucto Bay,0.0,45.48687,-61.14100000000001,18,2020-10-17T03:10:00.000Z,110,2020-10-17T03:16:24.833Z,45.4874,100,-61.14123000000001,100,11.9,100,12.8,100,12.6,100,0.0,100,3.6,100,,-1,,-1,,-1,,-1,,-1,,-1,,-1,,-1,1026.4,100,16.6,100,85,100,19.8,100,5.0,100,-0.2,1,8,1,1026.4,1,1026.4,1026.4,16.6,15.5,85,90,19.8,19.4,5.0,4.0
2020-10-17T03:20:00Z,44489,9302001,West Chedabucto Bay,0.0,45.48687,-61.14100000000001,18,2020-10-17T03:20:00.000Z,110,2020-10-17T03:23:29.475Z,45.48742,100,-61.14125,100,11.9,100,12.8,100,12.6,100,0.0,100,3.6,100,,-1,,-1,,-1,,-1,,-1,,-1,,-1,,-1,1026.4,100,16.9,100,85,100,20.9,100,5.0,100,-0.3,1,6,1,1026.4,1,1026.4,1026.4,16.9,16.2,85,90,20.9,20.2,5.0,4.0
2020-10-17T03:30:00Z,44489,9302001,West Chedabucto Bay,0.0,45.48687,-61.14100000000001,18,2020-10-17T03:30:00.000Z,110,2020-10-17T03:34:41.854Z,45.48742,100,-61.14125,100,11.9,100,12.8,100,12.6,100,0.0,100,3.6,100,,-1,,-1,,-1,,-1,,-1,,-1,,-1,,-1,1026.4,100,18.7,100,89,100,22.7,100,5.0,100,-0.3,1,5,1,1026.4,1,1026.4,1026.4,18.7,18.0,89,94,22.7,22.3,5.0,4.0
2020-10-17T03:40:00Z,44489,9302001,West Chedabucto Bay,0.0,45.48687,-61.14100000000001,18,2020-10-17T03:40:00.000Z,110,2020-10-17T03:43:45.203Z,45.48742,100,-61.14123000000001,100,11.9,100,12.8,100,12.5,100,0.0,100,3.6,100,,-1,,-1,,-1,,-1,,-1,,-1,,-1,,-1,1026.4,100,17.6,100,88,100,21.6,100,5.0,100,-0.2,1,5,1,1026.4,1,1026.4,1026.4,17.6,16.6,88,93,21.6,21.2,5.0,4.0
2020-10-17T03:50:00Z,44489,9302001,West Chedabucto Bay,0.0,45.48687,-61.14100000000001,18,2020-10-17T03:50:00.000Z,110,2020-10-17T03:53:43.476Z,45.4874,100,-61.14125,100,11.9,100,12.8,100,12.5,100,0.0,100,3.6,100,,-1,,-1,,-1,,-1,,-1,,-1,,-1,,-1,1026.3,100,16.9,100,84,100,20.5,100,5.0,100,-0.2,1,8,1,1026.3,1,1026.3,1026.3,16.9,16.2,84,88,20.5,19.8,5.0,4.0
2020-10-17T04:00:00Z,44489,9302001,West Chedabucto Bay,0.0,45.48687,-61.14100000000001,18,2020-10-17T04:00:00.000Z,108,2020-10-17T04:02:53.484Z,45.48742,100,-61.14125,100,12.0,100,12.8,100,12.5,100,0.0,100,3.6,100,0.3,100,0.9,100,5.6,100,0.5,100,0.7,100,6.0,100,4.1,100,7.7,100,1026.2,100,17.6,100,85,100,20.5,100,5.0,100,-0.4,1,8,1,1026.2,1,1026.2,1026.2,17.6,16.9,85,90,20.5,20.2,5.0,4.0
2020-10-17T04:10:00Z,44489,9302001,West Chedabucto Bay,0.0,45.48687,-61.14100000000001,18,2020-10-17T04:10:00.000Z,110,2020-10-17T04:15:45.925Z,45.48742,100,-61.14127,100,12.0,100,12.8,100,12.6,100,0.0,100,3.6,100,,-1,,-1,,-1,,-1,,-1,,-1,,-1,,-1,1026.2,100,16.2,100,83,100,19.1,100,5.0,100,-0.4,1,7,1,1026.2,1,1026.2,1026.2,16.2,15.5,83,88,19.1,18.7,5.0,4.0
2020-10-17T04:20:00Z,44489,9302001,West Chedabucto Bay,0.0,45.48687,-61.14100000000001,18,2020-10-17T04:20:00.000Z,110,2020-10-17T04:22:43.148Z,45.48742,100,-61.14127,100,12.1,100,12.8,100,12.6,100,0.0,100,3.6,100,,-1,,-1,,-1,,-1,,-1,,-1,,-1,,-1,1026.1,100,18.4,100,80,100,23.0,100,5.0,100,-0.5,1,8,1,1026.1,1,1026.1,1026.1,18.4,17.6,80,84,23.0,22.3,5.0,4.0
2020-10-17T04:30:00Z,44489,9302001,West Chedabucto Bay,0.0,45.48687,-61.14100000000001,18,2020-10-17T04:30:00.000Z,110,2020-10-17T04:32:45.872Z,45.48743,100,-61.14128,100,12.1,100,12.8,100,12.6,100,0.0,100,3.6,100,,-1,,-1,,-1,,-1,,-1,,-1,,-1,,-1,1026.1,100,17.6,100,81,100,23.0,100,5.0,100,-0.5,1,8,1,1026.1,1,1026.1,1026.1,17.6,16.9,81,85,23.0,22.0,5.0,4.0
2020-10-17T04:40:00Z,44489,9302001,West Chedabucto Bay,0.0,45.48687,-61.14100000000001,18,2020-10-17T04:40:00.000Z,110,2020-10-17T04:42:47.107Z,45.48745,100,-61.1413,100,12.1,100,12.8,100,12.5,100,0.0,100,3.6,100,,-1,,-1,,-1,,-1,,-1,,-1,,-1,,-1,1026.0,100,15.8,100,72,100,20.2,100,5.0,100,-0.6,1,8,1,1026.0,1,1026.0,1026.0,15.8,15.1,72,77,20.2,19.1,5.0,4.0
2020-10-17T04:50:00Z,44489,9302001,West Chedabucto Bay,0.0,45.48687,-61.14100000000001,18,2020-10-17T04:50:00.000Z,110,2020-10-17T04:52:49.848Z,45.48742,100,-61.1413,100,12.2,100,12.8,100,12.5,100,0.0,100,3.6,100,,-1,,-1,,-1,,-1,,-1,,-1,,-1,,-1,1025.9,100,15.8,100,71,100,20.2,100,5.0,100,-0.6,1,8,1,1025.9,1,1025.9,1025.9,15.8,15.1,71,76,20.2,19.4,5.0,4.0
2020-10-17T05:00:00Z,44489,9302001,West Chedabucto Bay,0.0,45.48687,-61.14100000000001,18,2020-10-17T05:00:00.000Z,108,2020-10-17T05:02:50.163Z,45.48745,100,-61.14131999999999,100,12.2,100,12.8,100,12.5,100,0.0,100,3.6,100,0.3,100,0.8,100,5.6,100,0.5,100,0.6,100,6.2,100,4.1,100,7.7,100,1025.9,100,19.1,100,72,100,23.0,100,5.0,100,-0.6,1,8,1,1025.9,1,1025.9,1025.9,19.1,18.4,72,78,23.0,22.0,5.0,4.0
2020-10-17T05:10:00Z,44489,9302001,West Chedabucto Bay,0.0,45.48687,-61.14100000000001,18,2020-10-17T05:10:00.000Z,110,2020-10-17T05:15:51.884Z,45.48745,100,-61.14133,100,12.3,100,12.8,100,12.5,100,0.0,100,3.6,100,,-1,,-1,,-1,,-1,,-1,,-1,,-1,,-1,1026.0,100,18.7,100,71,100,22.3,100,5.0,100,-0.5,1,8,1,1026.0,1,1026.0,1026.0,18.7,18.0,71,76,22.3,22.3,5.0,4.0
2020-10-17T05:20:00Z,44489,9302001,West Chedabucto Bay,0.0,45.48687,-61.14100000000001,18,2020-10-17T05:20:00.000Z,110,2020-10-17T05:22:59.390Z,45.4874,100,-61.1413,100,12.3,100,12.8,100,12.5,100,0.0,100,3.6,100,,-1,,-1,,-1,,-1,,-1,,-1,,-1,,-1,1025.9,100,17.3,100,67,100,20.5,100,5.0,100,-0.5,1,8,1,1025.9,1,1025.9,1025.9,17.3,16.6,67,72,20.5,19.8,5.0,4.0
2020-10-17T05:30:00Z,44489,9302001,West Chedabucto Bay,0.0,45.48687,-61.14100000000001,18,2020-10-17T05:30:00.000Z,110,2020-10-17T05:33:02.259Z,45.4874,100,-61.1413,100,12.2,100,12.8,100,12.5,100,0.0,100,3.6,100,,-1,,-1,,-1,,-1,,-1,,-1,,-1,,-1,1025.8,100,16.6,100,68,100,19.4,100,5.0,100,-0.5,1,8,1,1025.8,1,1025.8,1025.8,16.6,15.8,68,73,19.4,19.1,5.0,4.0
2020-10-17T05:40:00Z,44489,9302001,West Chedabucto Bay,0.0,45.48687,-61.14100000000001,18,2020-10-17T05:40:00.000Z,110,2020-10-17T05:43:03.235Z,45.4874,100,-61.1413,100,12.3,100,12.8,100,12.5,100,0.0,100,3.6,100,,-1,,-1,,-1,,-1,,-1,,-1,,-1,,-1,1025.8,100,15.8,100,67,100,18.7,100,5.0,100,-0.6,1,8,1,1025.8,1,1025.8,1025.8,15.8,14.8,67,73,18.7,18.4,5.0,4.0
2020-10-17T05:50:00Z,44489,9302001,West Chedabucto Bay,0.0,45.48687,-61.14100000000001,18,2020-10-17T05:50:00.000Z,110,2020-10-17T05:53:09.897Z,45.4874,100,-61.1413,100,12.2,100,12.8,100,12.5,100,0.0,100,3.6,100,,-1,,-1,,-1,,-1,,-1,,-1,,-1,,-1,1025.7,100,16.2,100,65,100,20.2,100,5.0,100,-0.8,1,8,1,1025.7,1,1025.7,1025.7,16.2,15.5,65,70,20.2,19.4,5.0,4.0
2020-10-17T06:00:00Z,44489,9302001,West Chedabucto Bay,0.0,45.48687,-61.14100000000001,18,2020-10-17T06:00:00.000Z,108,2020-10-17T06:03:10.480Z,45.4874,100,-61.14128,100,12.2,100,12.8,100,12.5,100,0.0,100,3.6,100,0.3,100,0.9,100,5.9,100,0.5,100,0.7,100,6.4,100,4.3,100,7.7,100,1025.6,100,15.8,100,62,100,19.4,100,5.0,100,-0.8,1,8,1,1025.6,1,1025.6,1025.6,15.8,15.1,62,67,19.4,18.7,5.0,4.0
2020-10-17T06:10:00Z,44489,9302001,West Chedabucto Bay,0.0,45.48687,-61.14100000000001,18,2020-10-17T06:10:00.000Z,110,2020-10-17T06:16:11.703Z,45.48738,100,-61.1413,100,12.2,100,12.8,100,12.5,100,0.0,100,3.6,100,,-1,,-1,,-1,,-1,,-1,,-1,,-1,,-1,1025.6,100,11.2,100,59,100,15.5,100,5.0,100,-0.8,1,8,1,1025.6,1,1025.6,1025.6,11.2,10.4,59,64,15.5,14.4,5.0,4.0
2020-10-17T06:20:00Z,44489,9302001,West Chedabucto Bay,0.0,45.48687,-61.14100000000001,18,2020-10-17T06:20:00.000Z,110,2020-10-17T06:23:10.012Z,45.48738,100,-61.14128,100,12.1,100,12.8,100,12.5,100,0.0,100,3.6,100,,-1,,-1,,-1,,-1,,-1,,-1,,-1,,-1,1025.5,100,9.7,100,43,100,12.2,100,5.0,100,-0.9,1,8,1,1025.5,1,1025.5,1025.5,9.7,9.0,43,48,12.2,11.5,5.0,4.0
2020-10-17T06:30:00Z,44489,9302001,West Chedabucto Bay,0.0,45.48687,-61.14100000000001,18,2020-10-17T06:30:00.000Z,110,2020-10-17T06:33:12.992Z,45.48742,100,-61.1413,100,12.1,100,12.8,100,12.5,100,0.0,100,3.6,100,,-1,,-1,,-1,,-1,,-1,,-1,,-1,,-1,1025.4,100,10.1,100,37,100,12.6,100,5.0,100,-1.0,1,8,1,1025.4,1,1025.4,1025.4,10.1,10.1,37,42,12.6,12.6,5.0,4.0
2020-10-17T06:40:00Z,44489,9302001,West Chedabucto Bay,0.0,45.48687,-61.14100000000001,18,2020-10-17T06:40:00.000Z,110,2020-10-17T06:43:12.897Z,45.48738,100,-61.1413,100,12.1,100,12.8,100,12.5,100,0.0,100,3.6,100,,-1,,-1,,-1,,-1,,-1,,-1,,-1,,-1,1025.3,100,9.7,100,35,100,13.7,100,5.0,100,-1.1,1,8,1,1025.3,1,1025.3,1025.3,9.7,9.4,35,41,13.7,13.0,5.0,4.0
2020-10-17T06:50:00Z,44489,9302001,West Chedabucto Bay,0.0,45.48687,-61.14100000000001,18,2020-10-17T06:50:00.000Z,110,2020-10-17T06:53:25.270Z,45.48742,100,-61.14128,100,11.9,100,12.8,100,12.5,100,0.0,100,3.6,100,,-1,,-1,,-1,,-1,,-1,,-1,,-1,,-1,1025.3,100,7.9,100,20,100,9.7,100,5.0,100,-1.1,1,7,1,1025.3,1,1025.3,1025.3,7.9,7.9,20,27,9.7,9.7,5.0,4.0
2020-10-17T07:00:00Z,44489,9302001,West Chedabucto Bay,0.0,45.48687,-61.14100000000001,18,2020-10-17T07:00:00.000Z,108,2020-10-17T07:04:19.311Z,45.4874,100,-61.1413,100,12.0,100,12.8,100,12.5,100,0.0,100,3.6,100,0.3,100,0.8,100,6.0,100,0.5,100,0.6,100,6.5,100,4.2,100,7.4,100,1025.3,100,8.3,100,18,100,10.8,100,5.0,100,-1.0,1,7,1,1025.3,1,1025.3,1025.3,8.3,8.6,18,25,10.8,10.8,5.0,4.0
2020-10-17T07:10:00Z,44489,9302001,West Chedabucto Bay,0.0,45.48687,-61.14100000000001,18,2020-10-17T07:10:00.000Z,110,2020-10-17T07:16:41.863Z,45.4874,100,-61.14127,100,11.9,100,12.8,100,12.5,100,0.0,100,3.6,100,,-1,,-1,,-1,,-1,,-1,,-1,,-1,,-1,1025.2,100,9.0,100,17,100,10.8,100,5.0,100,-1.0,1,8,1,1025.2,1,1025.2,1025.2,9.0,9.0,17,25,10.8,10.8,5.0,4.0
2020-10-17T07:20:00Z,44489,9302001,West Chedabucto Bay,0.0,45.48687,-61.14100000000001,18,2020-10-17T07:20:00.000Z,110,2020-10-17T07:23:46.054Z,45.48742,100,-61.1413,100,12.0,100,12.8,100,12.5,100,0.0,100,3.6,100,,-1,,-1,,-1,,-1,,-1,,-1,,-1,,-1,1025.1,100,9.0,100,25,100,10.4,100,5.0,100,-1.0,1,8,1,1025.1,1,1025.1,1025.1,9.0,9.0,25,32,10.4,10.8,5.0,4.0
2020-10-17T07:30:00Z,44489,9302001,West Chedabucto Bay,0.0,45.48687,-61.14100000000001,18,2020-10-17T07:30:00.000Z,110,2020-10-17T07:32:43.093Z,45.48742,100,-61.14128,100,12.0,100,12.8,100,12.5,100,0.0,100,3.6,100,,-1,,-1,,-1,,-1,,-1,,-1,,-1,,-1,1025.1,100,7.6,100,20,100,10.1,100,5.0,100,-1.0,1,7,1,1025.1,1,1025.1,1025.1,7.6,7.6,20,27,10.1,10.1,5.0,4.0
2020-10-17T07:40:00Z,44489,9302001,West Chedabucto Bay,0.0,45.48687,-61.14100000000001,18,2020-10-17T07:40:00.000Z,110,2020-10-17T07:42:40.716Z,45.48738,100,-61.14127,100,11.9,100,12.8,100,12.5,100,0.0,100,3.6,100,,-1,,-1,,-1,,-1,,-1,,-1,,-1,,-1,1025.0,100,7.6,100,19,100,9.0,100,5.0,100,-1.0,1,8,1,1025.0,1,1025.0,1025.0,7.6,7.6,19,26,9.0,9.4,5.0,4.0
2020-10-17T07:50:00Z,44489,9302001,West Chedabucto Bay,0.0,45.48687,-61.14100000000001,18,2020-10-17T07:50:00.000Z,110,2020-10-17T07:52:44.049Z,45.48738,100,-61.14127,100,11.9,100,12.8,100,12.5,100,0.0,100,3.6,100,,-1,,-1,,-1,,-1,,-1,,-1,,-1,,-1,1024.9,100,7.9,100,21,100,9.0,100,5.0,100,-1.1,1,8,1,1024.9,1,1024.9,1024.9,7.9,7.9,21,28,9.0,9.0,5.0,4.0
2020-10-17T08:00:00Z,44489,9302001,West Chedabucto Bay,0.0,45.48687,-61.14100000000001,18,2020-10-17T08:00:00.000Z,108,2020-10-17T08:03:45.387Z,45.48742,100,-61.1413,100,12.0,100,12.8,100,12.5,100,0.0,100,3.6,100,0.3,100,0.7,100,5.6,100,0.4,100,0.5,100,6.0,100,4.3,100,7.4,100,1024.8,100,7.9,100,14,100,9.0,100,5.0,100,-1.1,1,8,1,1024.8,1,1024.8,1024.8,7.9,7.9,14,22,9.0,9.0,5.0,4.0
2020-10-17T08:10:00Z,44489,9302001,West Chedabucto Bay,0.0,45.48687,-61.14100000000001,18,2020-10-17T08:10:00.000Z,110,2020-10-17T08:15:54.266Z,45.48742,100,-61.14128,100,12.0,100,12.8,100,12.5,100,0.0,100,3.6,100,,-1,,-1,,-1,,-1,,-1,,-1,,-1,,-1,1024.7,100,7.6,100,15,100,9.0,100,5.0,100,-1.2,1,8,1,1024.7,1,1024.7,1024.8,7.6,7.6,15,22,9.0,9.0,5.0,4.0
2020-10-17T08:20:00Z,44489,9302001,West Chedabucto Bay,0.0,45.48687,-61.14100000000001,18,2020-10-17T08:20:00.000Z,110,2020-10-17T08:22:58.781Z,45.48742,100,-61.1413,100,12.1,100,12.8,100,12.5,100,0.0,100,3.6,100,,-1,,-1,,-1,,-1,,-1,,-1,,-1,,-1,1024.6,100,8.3,100,19,100,10.8,100,5.0,100,-1.3,1,8,1,1024.6,1,1024.6,1024.6,8.3,8.3,19,26,10.8,10.8,5.0,4.0
2020-10-17T08:30:00Z,44489,9302001,West Chedabucto Bay,0.0,45.48687,-61.14100000000001,18,2020-10-17T08:30:00.000Z,110,2020-10-17T08:33:55.917Z,45.48742,100,-61.1413,100,12.2,100,12.8,100,12.5,100,0.0,100,3.6,100,,-1,,-1,,-1,,-1,,-1,,-1,,-1,,-1,1024.3,100,11.2,100,24,100,13.0,100,5.0,100,-1.5,1,8,1,1024.3,1,1024.3,1024.3,11.2,11.2,24,31,13.0,13.0,5.0,4.0
2020-10-17T08:40:00Z,44489,9302001,West Chedabucto Bay,0.0,45.48687,-61.14100000000001,18,2020-10-17T08:40:00.000Z,110,2020-10-17T08:43:58.183Z,45.4874,100,-61.1413,100,12.2,100,12.8,100,12.5,100,0.0,100,3.6,100,,-1,,-1,,-1,,-1,,-1,,-1,,-1,,-1,1024.3,100,10.4,100,14,100,12.2,100,5.0,100,-1.5,1,8,1,1024.3,1,1024.3,1024.3,10.4,10.4,14,21,12.2,12.2,5.0,4.0
2020-10-17T08:50:00Z,44489,9302001,West Chedabucto Bay,0.0,45.48687,-61.14100000000001,18,2020-10-17T08:50:00.000Z,110,2020-10-17T08:52:59.525Z,45.4874,100,-61.1413,100,12.3,100,12.8,100,12.5,100,0.0,100,3.6,100,,-1,,-1,,-1,,-1,,-1,,-1,,-1,,-1,1024.2,100,11.2,100,29,100,13.3,100,5.0,100,-1.5,1,8,1,1024.2,1,1024.2,1024.2,11.2,11.2,29,36,13.3,13.3,5.0,4.0
2020-10-17T09:00:00Z,44489,9302001,West Chedabucto Bay,0.0,45.48687,-61.14100000000001,18,2020-10-17T09:00:00.000Z,108,2020-10-17T09:03:17.943Z,45.4874,100,-61.1413,100,12.4,100,12.8,100,12.5,100,0.0,100,3.6,100,0.3,100,0.8,100,6.4,100,0.5,100,0.6,100,6.8,100,4.5,100,6.9,100,1024.2,100,9.7,100,34,100,11.5,100,5.0,100,-1.4,1,8,1,1024.2,1,1024.2,1024.2,9.7,9.7,34,42,11.5,11.9,5.0,4.0
2020-10-17T09:10:00Z,44489,9302001,West Chedabucto Bay,0.0,45.48687,-61.14100000000001,18,2020-10-17T09:10:00.000Z,110,2020-10-17T09:16:03.355Z,45.4874,100,-61.14128,100,12.5,100,12.8,100,12.5,100,0.0,100,3.6,100,,-1,,-1,,-1,,-1,,-1,,-1,,-1,,-1,1024.2,100,8.6,100,44,100,10.8,100,5.0,100,-1.4,1,8,1,1024.2,1,1024.2,1024.2,8.6,8.6,44,51,10.8,11.2,5.0,4.0
2020-10-17T09:20:00Z,44489,9302001,West Chedabucto Bay,0.0,45.48687,-61.14100000000001,18,2020-10-17T09:20:00.000Z,110,2020-10-17T09:23:00.485Z,45.48743,100,-61.1413,100,12.6,100,12.8,100,12.5,100,0.0,100,3.6,100,,-1,,-1,,-1,,-1,,-1,,-1,,-1,,-1,1024.1,100,10.8,100,56,100,12.6,100,5.0,100,-1.4,1,8,1,1024.1,1,1024.1,1024.1,10.8,10.1,56,61,12.6,12.2,5.0,4.0
2020-10-17T09:30:00Z,44489,9302001,West Chedabucto Bay,0.0,45.48687,-61.14100000000001,18,2020-10-17T09:30:00.000Z,110,2020-10-17T09:33:17.662Z,45.487429999999996,100,-61.14131999999999,100,12.7,100,12.8,100,12.5,100,0.0,100,3.6,100,,-1,,-1,,-1,,-1,,-1,,-1,,-1,,-1,1024.1,100,10.8,100,61,100,13.7,100,5.0,100,-1.3,1,6,1,1024.1,1,1024.1,1024.1,10.8,9.7,61,66,13.7,13.0,5.0,4.0
2020-10-17T09:40:00Z,44489,9302001,West Chedabucto Bay,0.0,45.48687,-61.14100000000001,18,2020-10-17T09:40:00.000Z,110,2020-10-17T09:43:15.179Z,45.48742,100,-61.1413,100,12.8,100,12.8,100,12.5,100,0.0,100,3.6,100,,-1,,-1,,-1,,-1,,-1,,-1,,-1,,-1,1023.9,100,13.0,100,60,100,15.5,100,5.0,100,-1.4,1,8,1,1023.9,1,1023.9,1023.9,13.0,11.9,60,65,15.5,14.8,5.0,4.0
2020-10-17T09:50:00Z,44489,9302001,West Chedabucto Bay,0.0,45.48687,-61.14100000000001,18,2020-10-17T09:50:00.000Z,110,2020-10-17T09:53:17.583Z,45.48742,100,-61.14128,100,12.9,100,12.8,100,12.5,100,0.0,100,3.6,100,,-1,,-1,,-1,,-1,,-1,,-1,,-1,,-1,1023.7,100,14.4,100,64,100,18.7,100,5.0,100,-1.6,1,8,1,1023.7,1,1023.7,1023.7,14.4,13.3,64,69,18.7,18.0,5.0,4.0
2020-10-17T10:00:00Z,44489,9302001,West Chedabucto Bay,0.0,45.48687,-61.14100000000001,18,2020-10-17T10:00:00.000Z,108,2020-10-17T10:03:19.117Z,45.48743,100,-61.14133,100,13.1,100,12.8,100,12.5,100,0.0,100,3.6,100,0.3,100,0.7,100,6.4,100,0.4,100,0.6,100,7.1,100,4.7,100,7.4,100,1023.7,100,13.3,100,73,100,16.9,100,5.0,100,-1.5,1,7,1,1023.7,1,1023.7,1023.7,13.3,12.2,73,78,16.9,16.2,5.0,4.0